TimeAKDT,TemperatureF,Dew PointF,Humidity,Sea Level PressureIn,VisibilityMPH,Wind Direction,Wind SpeedMPH,Gust SpeedMPH,PrecipitationIn,Events,Conditions,WindDirDegrees,DateUTC
12:53 AM,36.0,28.9,76,30.23,10.0,Calm,Calm,-,N/A,,Clear,0,2013-05-10 08:53:00
1:53 AM,35.1,28.0,76,30.22,10.0,Calm,Calm,-,N/A,,Clear,0,2013-05-10 09:53:00
2:53 AM,35.1,28.9,78,30.21,10.0,Calm,Calm,-,N/A,,Mostly Cloudy,0,2013-05-10 10:53:00
3:53 AM,33.1,28.0,82,30.19,10.0,Calm,Calm,-,N/A,,Clear,0,2013-05-10 11:53:00
4:53 AM,33.1,28.0,82,30.18,10.0,Calm,Calm,-,N/A,,Clear,0,2013-05-10 12:53:00
5:53 AM,33.1,28.0,82,30.17,10.0,Calm,Calm,-,N/A,,Clear,0,2013-05-10 13:53:00
6:53 AM,35.1,30.0,82,30.15,10.0,Calm,Calm,-,N/A,,Clear,0,2013-05-10 14:53:00
7:53 AM,39.9,33.1,77,30.14,10.0,Calm,Calm,-,N/A,,Clear,0,2013-05-10 15:53:00
8:53 AM,42.1,35.1,76,30.14,10.0,Calm,Calm,-,N/A,,Clear,0,2013-05-10 16:53:00
9:53 AM,44.1,32.0,63,30.13,10.0,Calm,Calm,-,N/A,,Clear,0,2013-05-10 17:53:00
10:53 AM,45.0,32.0,60,30.12,10.0,Calm,Calm,-,N/A,,Clear,0,2013-05-10 18:53:00
11:53 AM,46.0,35.1,66,30.11,10.0,Calm,Calm,-,N/A,,Mostly Cloudy,0,2013-05-10 19:53:00
12:53 PM,48.0,35.1,61,30.09,10.0,Calm,Calm,-,N/A,,Scattered Clouds,0,2013-05-10 20:53:00
1:53 PM,50.0,35.1,57,30.07,10.0,SSW,3.5,-,N/A,,Overcast,200,2013-05-10 21:53:00
2:53 PM,51.1,33.1,50,30.05,10.0,SW,8.1,-,N/A,,Scattered Clouds,220,2013-05-10 22:53:00
3:53 PM,48.9,36.0,61,30.04,10.0,SSW,8.1,-,N/A,,Scattered Clouds,210,2013-05-10 23:53:00
4:53 PM,48.9,37.0,64,30.01,10.0,SW,6.9,-,N/A,,Scattered Clouds,230,2013-05-11 00:53:00
5:53 PM,53.1,30.0,41,30.00,10.0,West,5.8,-,N/A,,Scattered Clouds,260,2013-05-11 01:53:00
6:53 PM,48.0,39.0,71,29.97,10.0,SSW,6.9,-,N/A,,Scattered Clouds,200,2013-05-11 02:53:00
7:53 PM,46.0,39.0,76,29.97,10.0,SW,9.2,-,N/A,,Mostly Cloudy,220,2013-05-11 03:53:00
8:53 PM,45.0,37.0,74,29.98,10.0,WSW,10.4,-,N/A,,Overcast,240,2013-05-11 04:53:00
9:53 PM,44.1,35.1,71,29.97,10.0,West,12.7,-,N/A,,Overcast,260,2013-05-11 05:53:00
10:53 PM,44.1,35.1,71,29.97,10.0,WSW,9.2,-,N/A,,Overcast,250,2013-05-11 06:53:00
11:53 PM,46.0,33.1,61,29.96,10.0,West,4.6,-,N/A,,Overcast,280,2013-05-11 07:53:00